COSMOS 2251 DEB, 37966

Orbit data source: Space-Track

COSMOS 2251 DEB, 37966 is space debris in LEO originally from a launch on Wed, 16 Jun 1993 UTC launched from the Plesetsk Missile And Space Complex (PKMTR). The debris from Iridium 33, an American commercial communications satellite, has been tracked extensively since its accidental collision with the defunct Russian satellite Cosmos 2251 in 2009. This event, occurring at high speed in low Earth orbit (LEO), generated thousands of pieces of space debris, significantly increasing the risk of further collisions. The Iridium 33 debris cloud has impacted space traffic management and orbital debris mitigation strategies, making it a subject of ongoing study in space situational awareness.

Loading next visibility...
Identifier
37966, 1993-036BPR
Orbit
LEO
Country
Flag of CISCIS
Related business
Manufacturer
Unknown
Mission
Spacecraft
Bus & Motor
Unknown
Mass
Unknown
Launch date (UTC)
1993-06-16 (33 years ago)
Launch vehicle
Unknown
Launch site
Plesetsk Missile And Space Complex (PKMTR)
Object type
Payload
Rocket body
Debris
Shape & HBR
Unknown shape, 0.1 m
Radar Cross Section
Small (<0.1 m²)

Expand to show TLE details & history
Last TLE update: 2 weeks ago

TLE from 2 weeks ago
0 COSMOS 2251 DEB
1 37966U 93036BPR 26055.33149579  .00076101  00000-0  31189-2 0  9990
2 37966  73.9787  76.2838 0016682 284.1156  75.8189 15.23776337864592
Epoch: 2026-02-24T07:57Z
TLE epoch observation values (Epoch: 2026-02-24T07:57:21.236Z)
Latitude
Longitude
162.73276°
Altitude
494.384 km
Speed
7.619 km/s
True Right ascension
05h 05m 08s
True Declination
0° 00' 00"
Sunlit
Object was in daylight at epoch
Visualization orbit readout
Latitude
Unknown
Longitude
Unknown
Altitude
Unknown
Speed
Unknown
Apparent Right ascension
Unknown
Apparent Declination
Unknown
Sunlit
N/A
Visualization observer readout
Local Sidereal Time
19:36:02
Azimuth
Unknown
Elevation
Unknown
Doppler factor
Unknown
Orbital elements
Apogee altitude
503.456 km
Perigee altitude
480.535 km
Semi-major axis
6,870.132 km
Eccentricity
0.00167
Inclination
73.9787°
RAAN
76.2838°
Arg. of periapsis
284.1156°
True anomaly
76.00433°
Mean anomaly
75.8189°
Eccentric anomaly
75.91161°
Mean motion
3.8115 °/min
Orbital period
94.45 mins
BSTAR
0.0031189
Loading maneuver chart data...
Computing Atmospheric mass density...

Documentation

Showing up to 5 results
|